TimeCST,TemperatureF,Dew PointF,Humidity,Sea Level PressureIn,VisibilityMPH,Wind Direction,Wind SpeedMPH,Gust SpeedMPH,PrecipitationIn,Events,Conditions,WindDirDegrees,DateUTC
12:53 AM,30.0,25.0,82,30.44,10.0,South,4.6,-,N/A,,Clear,190,2013-01-18 06:53:00
1:53 AM,28.9,25.0,85,30.43,10.0,South,8.1,-,N/A,,Clear,180,2013-01-18 07:53:00
2:53 AM,28.9,25.0,85,30.41,10.0,South,8.1,-,N/A,,Clear,170,2013-01-18 08:53:00
3:53 AM,28.9,26.1,89,30.39,10.0,South,9.2,-,N/A,,Clear,170,2013-01-18 09:53:00
4:53 AM,30.0,26.1,85,30.37,10.0,South,12.7,-,N/A,,Clear,180,2013-01-18 10:53:00
5:53 AM,30.9,27.0,85,30.35,10.0,South,12.7,-,N/A,,Clear,180,2013-01-18 11:53:00
6:53 AM,30.0,26.1,85,30.34,10.0,South,13.8,-,N/A,,Clear,180,2013-01-18 12:53:00
7:53 AM,30.0,26.1,85,30.34,10.0,South,12.7,-,N/A,,Clear,180,2013-01-18 13:53:00
8:53 AM,34.0,28.9,82,30.35,10.0,South,11.5,-,N/A,,Clear,180,2013-01-18 14:53:00
9:53 AM,41.0,30.9,67,30.35,10.0,South,15.0,-,N/A,,Clear,190,2013-01-18 15:53:00
10:53 AM,46.9,30.9,54,30.32,10.0,SSW,19.6,-,N/A,,Clear,200,2013-01-18 16:53:00
11:53 AM,51.1,30.9,46,30.27,10.0,SSW,26.5,32.2,N/A,,Clear,200,2013-01-18 17:53:00
12:53 PM,55.0,30.9,40,30.21,10.0,South,20.7,33.4,N/A,,Clear,190,2013-01-18 18:53:00
1:53 PM,57.0,30.9,37,30.17,10.0,SSW,26.5,36.8,N/A,,Clear,210,2013-01-18 19:53:00
2:53 PM,59.0,30.0,33,30.15,10.0,SSW,23.0,34.5,N/A,,Clear,200,2013-01-18 20:53:00
3:53 PM,59.0,30.0,33,30.13,10.0,SSW,24.2,33.4,N/A,,Clear,210,2013-01-18 21:53:00
4:53 PM,57.0,30.9,37,30.12,10.0,SSW,17.3,27.6,N/A,,Clear,200,2013-01-18 22:53:00
5:53 PM,53.1,30.9,43,30.12,10.0,South,13.8,-,N/A,,Clear,190,2013-01-18 23:53:00
6:53 PM,50.0,30.9,48,30.14,10.0,South,13.8,-,N/A,,Clear,190,2013-01-19 00:53:00
7:53 PM,46.0,30.9,56,30.14,10.0,South,12.7,-,N/A,,Clear,180,2013-01-19 01:53:00
8:53 PM,46.0,32.0,58,30.12,10.0,South,15.0,-,N/A,,Clear,190,2013-01-19 02:53:00
9:53 PM,46.9,30.9,54,30.09,10.0,South,15.0,23.0,N/A,,Clear,190,2013-01-19 03:53:00
10:53 PM,46.9,30.9,54,30.08,10.0,SSW,18.4,25.3,N/A,,Clear,200,2013-01-19 04:53:00
11:53 PM,44.1,30.9,60,30.07,10.0,SSW,13.8,-,N/A,,Clear,200,2013-01-19 05:53:00